GW4073 Weather Reports


Display with metric or nautical units.
time (UTC)temp
F
wind
direction
speed
MPH
gust
MPH
rain 1hr
in
rain 24hr
in
rain mn
in
humidity
%
barometer
mb
20260505130210 35 58 2.0 6.0 0.00 0.00 0.00 69 1007.2
20260505124700 35 108 5.0 7.0 0.00 0.00 0.00 68 1007.0
20260505124157 35 91 3.0 12.0 0.00 0.00 0.00 67 1006.8
20260505123653 35 77 4.0 9.0 0.00 0.00 0.00 68 1007.1
20260505123150 35 126 10.0 11.0 0.00 0.00 0.00 68 1007.0
20260505122641 35 58 3.0 10.0 0.00 0.00 0.00 68 1007.0
20260505122138 35 84 4.0 11.0 0.00 0.00 0.00 67 1007.1
20260505121634 35 94 6.0 12.0 0.00 0.00 0.00 67 1006.9
20260505121126 35 99 5.0 12.0 0.00 0.00 0.00 67 1007.0
20260505120621 36 108 5.0 10.0 0.00 0.00 0.00 66 1007.1
20260505120117 36 101 5.0 10.0 0.00 0.00 0.00 65 1006.8
20260505115612 36 42 4.0 12.0 0.00 0.00 0.00 65 1007.0
20260505115109 36 118 6.0 13.0 0.00 0.00 0.00 65 1007.1
20260505114607 35 49 6.0 6.0 0.00 0.00 0.00 66 1007.0
20260505114103 35 51 4.0 5.0 0.00 0.00 0.00 67 1007.2
20260505113559 36 34 4.0 9.0 0.00 0.00 0.00 66 1007.1
20260505113055 36 52 5.0 8.0 0.00 0.00 0.00 65 1007.1
20260505112551 36 53 4.0 8.0 0.00 0.00 0.00 65 1007.1
20260505112050 36 26 8.0 11.0 0.00 0.00 0.00 65 1007.4
20260505111544 36 58 4.0 9.0 0.00 0.00 0.00 66 1007.1
20260505111040 36 72 5.0 5.0 0.00 0.00 0.00 66 1007.0
20260505110537 36 57 6.0 12.0 0.00 0.00 0.00 66 1007.2
20260505102003 37 40 4.0 8.0 0.00 0.00 0.00 64 1007.0
20260505101455 37 61 5.0 14.0 0.00 0.00 0.00 63 1007.4
20260505100952 37 61 6.0 12.0 0.00 0.00 0.00 63 1007.4
20260505100450 37 60 8.0 13.0 0.00 0.00 0.00 64 1007.2
20260505095945 37 75 7.0 11.0 0.00 0.00 0.00 65 1007.5
20260505095442 37 82 6.0 9.0 0.00 0.00 0.00 65 1007.2
20260505094938 37 89 6.0 10.0 0.00 0.00 0.00 65 1007.2
20260505094435 37 80 5.0 11.0 0.00 0.00 0.00 64 1007.2
20260505093931 37 115 7.0 11.0 0.00 0.00 0.00 63 1007.1
20260505093428 37 69 9.0 12.0 0.00 0.00 0.00 64 1007.1
20260505092925 38 34 5.0 11.0 0.00 0.00 0.00 65 1007.4
20260505092423 38 66 5.0 8.0 0.00 0.00 0.00 64 1007.4
20260505091920 38 60 4.0 11.0 0.00 0.00 0.00 63 1007.2
20260505091418 38 104 7.0 8.0 0.00 0.00 0.00 63 1007.4
20260505090915 38 56 5.0 10.0 0.00 0.00 0.00 63 1007.2
20260505090413 38 72 6.0 8.0 0.00 0.00 0.00 63 1007.2
20260505085911 38 49 12.0 13.0 0.00 0.00 0.00 63 1007.2
20260505085409 38 73 9.0 10.0 0.00 0.00 0.00 62 1007.6
20260505084907 39 50 7.0 9.0 0.00 0.00 0.00 62 1007.5
20260505084405 39 113 6.0 7.0 0.00 0.00 0.00 62 1007.4
20260505083903 39 52 9.0 11.0 0.00 0.00 0.00 62 1007.7
20260505083400 39 64 6.0 9.0 0.00 0.00 0.00 62 1007.8
20260505082856 39 67 8.0 11.0 0.00 0.00 0.00 63 1007.7
20260505082352 39 51 4.0 11.0 0.00 0.00 0.00 62 1007.7
20260505081849 39 67 3.0 11.0 0.00 0.00 0.00 62 1007.8
20260505081345 39 141 5.0 6.0 0.00 0.00 0.00 62 1007.7
20260505080842 40 81 5.0 13.0 0.00 0.00 0.00 61 1007.8
20260505080338 40 71 3.0 12.0 0.00 0.00 0.00 61 1007.7
20260505075834 40 40 5.0 9.0 0.00 0.00 0.00 61 1007.7
20260505075330 40 112 6.0 8.0 0.00 0.00 0.00 61 1007.8
20260505074828 40 51 2.0 7.0 0.00 0.00 0.00 61 1007.9
20260505074325 40 73 6.0 11.0 0.00 0.00 0.00 62 1007.9
20260505073822 40 65 6.0 7.0 0.00 0.00 0.00 63 1008.1
20260505073320 41 70 7.0 10.0 0.00 0.00 0.00 61 1007.9
20260505072816 41 105 4.0 9.0 0.00 0.00 0.00 63 1007.8
20260505072312 41 81 4.0 11.0 0.00 0.00 0.00 62 1007.8
20260505071808 41 54 9.0 9.0 0.00 0.00 0.00 62 1008.2
20260505071305 41 57 6.0 8.0 0.00 0.00 0.00 62 1007.8
20260505070803 41 68 5.0 7.0 0.00 0.00 0.00 63 1008.1
20260505070254 41 74 6.0 8.0 0.00 0.00 0.00 65 1007.8
20260505065749 41 64 5.0 7.0 0.00 0.00 0.00 64 1007.7
20260505065246 41 85 4.0 9.0 0.00 0.00 0.00 65 1007.7
20260505064743 41 42 8.0 8.0 0.00 0.00 0.00 64 1007.7
20260505064241 42 60 6.0 9.0 0.00 0.00 0.00 64 1007.7
20260505063738 42 65 6.0 9.0 0.00 0.00 0.00 63 1007.5
20260505063235 42 85 4.0 7.0 0.00 0.00 0.00 62 1007.5
20260505062731 42 64 7.0 8.0 0.00 0.00 0.00 63 1007.4
20260505062229 42 71 5.0 7.0 0.00 0.00 0.00 62 1007.4
20260505061725 42 63 4.0 5.0 0.00 0.00 0.00 63 1007.5
20260505061224 43 113 4.0 6.0 0.00 0.00 0.00 62 1007.4
20260505060721 43 62 6.0 10.0 0.00 0.00 0.00 64 1007.5
20260505060217 43 58 5.0 10.0 0.00 0.00 0.00 64 1007.4
20260505055713 43 55 5.0 8.0 0.00 0.02 0.02 63 1007.0
20260505055209 43 70 5.0 6.0 0.00 0.02 0.02 62 1007.2
20260505054707 44 58 4.0 6.0 0.00 0.02 0.02 62 1007.4
20260505054204 44 104 3.0 5.0 0.00 0.02 0.02 63 1007.2
20260505053656 44 58 2.0 4.0 0.00 0.02 0.02 62 1007.5
20260505053153 44 32 3.0 7.0 0.00 0.02 0.02 65 1007.5
20260505052650 43 73 6.0 9.0 0.00 0.02 0.02 65 1007.2
20260505052147 43 83 3.0 5.0 0.00 0.02 0.02 66 1007.5
20260505051643 43 93 3.0 3.0 0.00 0.02 0.02 69 1007.7
20260505051141 43 102 3.0 4.0 0.00 0.02 0.02 67 1007.5
20260505050638 43 108 2.0 4.0 0.00 0.02 0.02 66 1007.6
20260505050137 43 98 3.0 3.0 0.00 0.02 0.02 68 1007.6
20260505041606 45 96 1.0 1.0 0.00 0.02 0.02 64 1007.1
20260505041104 46 123 1.0 2.0 0.00 0.02 0.02 61 1007.1
20260505040601 46 229 0.0 1.0 0.00 0.02 0.02 59 1006.5
20260505040058 47 212 0.0 0.0 0.00 0.02 0.02 60 1006.9
20260505035554 47 130 0.0 3.0 0.00 0.02 0.02 57 1006.5
20260505035051 48 147 0.0 2.0 0.00 0.02 0.02 53 1006.5
20260505034547 48 110 2.0 2.0 0.00 0.02 0.02 57 1006.2
20260505034044 49 293 0.0 0.0 0.00 0.02 0.02 51 1006.4
20260505033541 49 11 0.0 0.0 0.00 0.02 0.02 50 1006.4
20260505033039 50 306 0.0 1.0 0.00 0.02 0.02 50 1006.1
20260505032537 50 48 0.0 0.0 0.00 0.02 0.02 49 1006.3
20260505032033 51 293 0.0 0.0 0.00 0.02 0.02 54 1006.7
20260505031531 51 55 0.0 1.0 0.00 0.02 0.02 48 1006.5
20260505031027 51 30 0.0 1.0 0.00 0.02 0.02 49 1006.4
20260505030524 51 44 1.0 1.0 0.00 0.02 0.02 51 1006.2
20260505030020 52 66 0.0 0.0 0.00 0.02 0.02 49 1006.4
20260505025516 52 44 0.0 1.0 0.00 0.02 0.02 47 1006.1
20260505025015 53 320 0.0 1.0 0.00 0.02 0.02 45 1005.8
20260505024511 53 17 0.0 2.0 0.00 0.02 0.02 44 1005.9
20260505024009 54 1 0.0 2.0 0.00 0.02 0.02 47 1005.8
20260505023505 55 359 1.0 2.0 0.00 0.02 0.02 44 1005.7
20260505023003 55 12 1.0 2.0 0.00 0.02 0.02 42 1005.7
20260505022500 56 269 0.0 4.0 0.00 0.02 0.02 39 1005.8
20260505021957 57 263 2.0 4.0 0.00 0.02 0.02 39 1005.7
20260505021454 57 322 0.0 5.0 0.00 0.02 0.02 41 1005.6
20260505020949 57 322 0.0 2.0 0.00 0.02 0.02 39 1005.8
20260505020445 58 343 0.0 4.0 0.00 0.02 0.02 36 1005.5
20260505015942 58 193 0.0 3.0 0.00 0.02 0.02 39 1005.5
20260505015439 59 308 2.0 5.0 0.00 0.02 0.02 40 1005.5
20260505014937 59 251 3.0 6.0 0.00 0.02 0.02 36 1005.5
20260505014433 59 310 2.0 6.0 0.00 0.02 0.02 36 1005.5
20260505013930 60 254 5.0 9.0 0.00 0.02 0.02 35 1005.7
20260505013427 60 258 4.0 9.0 0.00 0.02 0.02 34 1005.8
20260505012925 60 213 2.0 9.0 0.00 0.02 0.02 32 1005.8
20260505012423 60 260 0.0 8.0 0.00 0.02 0.02 32 1005.7
20260505011919 60 209 3.0 6.0 0.00 0.02 0.02 31 1005.6
20260505011416 60 246 4.0 6.0 0.00 0.02 0.02 31 1005.5
20260505010912 61 245 0.0 6.0 0.00 0.02 0.02 33 1005.7
20260505010408 61 277 3.0 7.0 0.00 0.02 0.02 33 1005.7
20260505005904 61 287 0.0 7.0 0.00 0.02 0.02 36 1005.5
20260505005401 62 268 2.0 4.0 0.00 0.02 0.02 34 1005.4
20260505004859 62 285 1.0 5.0 0.00 0.02 0.02 35 1005.8
20260505004355 62 207 2.0 4.0 0.00 0.02 0.02 34 1005.8
20260505003852 62 214 4.0 10.0 0.00 0.02 0.02 33 1005.7
20260505003349 62 288 3.0 6.0 0.00 0.02 0.02 34 1005.9
20260505002845 62 241 2.0 5.0 0.00 0.02 0.02 34 1005.7
20260505002342 62 273 0.0 3.0 0.00 0.02 0.02 34 1005.7
20260505001841 63 271 3.0 4.0 0.00 0.02 0.02 31 1005.9
20260505001337 63 265 3.0 11.0 0.00 0.02 0.02 30 1005.9
20260505000835 64 251 3.0 9.0 0.00 0.02 0.02 29 1005.7
20260505000332 64 13 2.0 11.0 0.00 0.02 0.02 29 1005.9
20260504235829 64 277 2.0 8.0 0.00 0.02 0.02 32 1005.9
20260504235326 64 287 2.0 3.0 0.00 0.02 0.02 32 1005.9
20260504234822 64 278 0.0 7.0 0.00 0.02 0.02 32 1005.9
20260504234320 64 287 2.0 7.0 0.00 0.02 0.02 32 1006.2
20260504233816 64 289 3.0 6.0 0.00 0.02 0.02 33 1005.6
20260504233312 64 275 5.0 13.0 0.00 0.02 0.02 31 1005.8
20260504232809 65 177 2.0 7.0 0.00 0.02 0.02 31 1005.8
20260504232306 65 299 3.0 3.0 0.00 0.02 0.02 33 1005.8
20260504231803 64 254 5.0 6.0 0.00 0.02 0.02 33 1005.7
20260504231259 64 199 4.0 6.0 0.00 0.02 0.02 31 1006.1
20260504230755 65 167 5.0 7.0 0.00 0.02 0.02 30 1005.7
20260504230254 64 247 4.0 7.0 0.00 0.02 0.02 31 1005.8
20260504225752 65 265 1.0 6.0 0.00 0.02 0.02 32 1005.8
20260504225248 65 276 2.0 15.0 0.00 0.02 0.02 29 1006.1
20260504224745 64 269 0.0 3.0 0.00 0.02 0.02 33 1005.6
20260504224243 64 250 7.0 10.0 0.00 0.02 0.02 34 1006.2
20260504223739 64 284 4.0 10.0 0.00 0.02 0.02 34 1006.1
20260504223235 65 284 4.0 8.0 0.00 0.02 0.02 36 1006.2
20260504222732 66 284 2.0 4.0 0.00 0.02 0.02 38 1006.2
20260504222228 65 213 6.0 7.0 0.00 0.02 0.02 33 1006.4
20260504221726 65 297 4.0 11.0 0.00 0.02 0.02 34 1006.1
20260504221223 65 268 3.0 8.0 0.00 0.02 0.02 33 1006.3
20260504220720 65 149 6.0 15.0 0.00 0.02 0.02 33 1006.1
20260504220217 65 133 10.0 12.0 0.00 0.02 0.02 32 1006.4
20260504215714 66 215 4.0 6.0 0.00 0.02 0.02 33 1006.3
20260504215211 66 282 3.0 8.0 0.00 0.02 0.02 34 1006.7
20260504214706 65 267 3.0 10.0 0.00 0.02 0.02 35 1006.5
20260504214203 66 231 2.0 9.0 0.00 0.02 0.02 36 1006.7
20260504213700 65 215 3.0 12.0 0.00 0.02 0.02 33 1006.7
20260504213156 67 250 5.0 11.0 0.00 0.02 0.02 33 1006.9
20260504212653 67 273 2.0 8.0 0.00 0.02 0.02 34 1006.9
20260504212150 67 250 2.0 5.0 0.00 0.02 0.02 32 1006.9
20260504211647 67 279 3.0 6.0 0.00 0.02 0.02 33 1006.9
20260504211143 68 241 4.0 10.0 0.00 0.02 0.02 31 1007.1
20260504210641 67 286 2.0 6.0 0.00 0.02 0.02 32 1007.2
20260504210137 67 253 5.0 12.0 0.00 0.02 0.02 32 1007.2
20260504205635 67 238 6.0 11.0 0.00 0.02 0.02 33 1007.0
20260504205132 67 290 3.0 9.0 0.00 0.02 0.02 34 1007.2
20260504204631 68 210 4.0 8.0 0.00 0.02 0.02 31 1007.2
20260504204129 65 126 3.0 9.0 0.00 0.02 0.02 32 1007.0
20260504203628 67 192 3.0 10.0 0.00 0.02 0.02 35 1007.7
20260504203125 68 226 2.0 6.0 0.00 0.02 0.02 38 1007.2
20260504202625 67 213 4.0 7.0 0.00 0.02 0.02 34 1007.2
20260504202122 65 150 8.0 12.0 0.00 0.02 0.02 32 1007.1
20260504201619 67 222 8.0 9.0 0.00 0.02 0.02 32 1007.4
20260504201117 67 359 2.0 5.0 0.00 0.02 0.02 34 1007.4
20260504200614 68 195 2.0 7.0 0.00 0.02 0.02 32 1007.5
20260504200110 67 261 3.0 5.0 0.00 0.02 0.02 40 1007.2
20260504195606 66 277 4.0 11.0 0.00 0.02 0.02 34 1007.5
20260504195102 66 283 4.0 11.0 0.00 0.02 0.02 38 1007.5
20260504194600 67 235 3.0 6.0 0.00 0.02 0.02 34 1007.7
20260504194055 66 263 1.0 12.0 0.00 0.02 0.02 38 1007.7
20260504193552 67 244 2.0 7.0 0.00 0.02 0.02 42 1007.7
20260504193050 65 31 0.0 4.0 0.00 0.02 0.02 34 1007.7
20260504192548 65 88 4.0 12.0 0.00 0.02 0.02 36 1007.7
20260504192046 66 182 4.0 6.0 0.00 0.02 0.02 36 1007.8
20260504191544 65 216 6.0 8.0 0.00 0.02 0.02 37 1007.8
20260504191039 66 259 2.0 5.0 0.00 0.02 0.02 41 1008.1
20260504190536 65 167 3.0 5.0 0.00 0.02 0.02 35 1008.1
20260504190032 65 289 4.0 9.0 0.00 0.02 0.02 42 1007.8
20260504185530 64 296 3.0 6.0 0.00 0.02 0.02 39 1008.1
20260504185026 65 247 4.0 11.0 0.00 0.02 0.02 38 1008.1
20260504184521 64 295 4.0 10.0 0.00 0.02 0.02 41 1008.1
20260504184017 64 230 4.0 5.0 0.00 0.02 0.02 43 1008.2
20260504183514 65 278 2.0 6.0 0.00 0.02 0.02 44 1008.4
20260504183013 65 250 3.0 4.0 0.00 0.02 0.02 44 1008.1
20260504182509 65 324 2.0 6.0 0.00 0.02 0.02 45 1008.2
20260504182006 63 305 2.0 3.0 0.00 0.02 0.02 47 1008.5
20260504181503 63 253 6.0 6.0 0.00 0.02 0.02 46 1008.4
20260504181002 62 263 2.0 6.0 0.00 0.02 0.02 48 1008.7
20260504180500 64 317 1.0 2.0 0.00 0.02 0.02 45 1008.4
20260504175958 63 286 3.0 7.0 0.00 0.02 0.02 47 1008.4
20260504175455 63 151 3.0 11.0 0.00 0.02 0.02 45 1008.5
20260504174952 64 118 3.0 4.0 0.00 0.02 0.02 44 1008.9
20260504174450 64 139 4.0 5.0 0.00 0.02 0.02 44 1008.7
20260504173947 62 298 2.0 3.0 0.00 0.02 0.02 48 1008.5
20260504173443 62 263 2.0 4.0 0.00 0.02 0.02 51 1008.8
20260504172941 62 260 2.0 5.0 0.00 0.02 0.02 51 1008.7
20260504172437 62 288 2.0 3.0 0.00 0.02 0.02 50 1008.8
20260504171934 62 295 1.0 3.0 0.00 0.02 0.02 50 1008.7
20260504171431 62 265 2.0 7.0 0.00 0.02 0.02 51 1008.7
20260504170928 62 237 2.0 3.0 0.00 0.02 0.02 55 1008.8
20260504170424 62 312 3.0 4.0 0.00 0.02 0.02 55 1008.7
20260504160343 57 108 5.0 7.0 0.00 0.02 0.02 66 1008.3
20260504150808 55 51 3.0 9.0 0.00 0.02 0.02 67 1008.5
20260504150304 54 47 8.0 12.0 0.00 0.02 0.02 67 1008.9
20260504141234 50 46 5.0 8.0 0.00 0.02 0.02 74 1008.9
20260504140731 50 32 4.0 6.0 0.00 0.02 0.02 75 1009.0
20260504140226 50 0 4.0 8.0 0.00 0.02 0.02 74 1008.8